Powrót do katalogu

IRS 1A

AktywnyNaukaSSO
NORAD 18960·PAYLOAD·🇮🇳 India

Wystrzelony Mar 17, 1988 z Baikonur Cosmodrome

Loading…

Następne Przeloty (najbliższe 24 godziny)

TLE

ŚwieżeSource: Space-Track

Epoka: Sep 14, 2026, 03:17 UTC

1 18960U 88021A   26257.13749655  .00000093  00000-0  96381-4 0  9998
2 18960  98.8412 308.5090 0013527 327.0897  56.9694 13.97178077865599

Śledź IRS 1A w czasie rzeczywistym z AllMySat

Download on the App Store